TimeCDT,TemperatureF,Dew PointF,Humidity,Sea Level PressureIn,VisibilityMPH,Wind Direction,Wind SpeedMPH,Gust SpeedMPH,PrecipitationIn,Events,Conditions,WindDirDegrees,DateUTC
12:15 AM,35.8,26.4,69,30.14,10.0,West,3.5,-,N/A,,Clear,280,2014-03-13 05:15:00
12:35 AM,34.7,26.6,72,30.14,10.0,West,4.6,-,N/A,,Clear,280,2014-03-13 05:35:00
12:55 AM,34.5,26.6,73,30.14,10.0,WNW,3.5,-,N/A,,Clear,290,2014-03-13 05:55:00
1:15 AM,35.2,26.1,69,30.14,10.0,WNW,4.6,-,N/A,,Clear,300,2014-03-13 06:15:00
1:35 AM,35.6,25.5,67,30.14,10.0,WNW,3.5,-,N/A,,Clear,290,2014-03-13 06:35:00
1:55 AM,34.9,25.3,68,30.15,10.0,WNW,3.5,-,N/A,,Clear,290,2014-03-13 06:55:00
2:15 AM,34.3,24.8,68,30.14,10.0,Calm,Calm,-,N/A,,Clear,0,2014-03-13 07:15:00
2:35 AM,34.0,25.2,70,30.14,10.0,Calm,Calm,-,N/A,,Clear,0,2014-03-13 07:35:00
2:55 AM,31.3,26.1,81,30.14,10.0,Calm,Calm,-,N/A,,Clear,0,2014-03-13 07:55:00
3:15 AM,31.1,25.7,80,30.14,10.0,West,3.5,-,N/A,,Clear,270,2014-03-13 08:15:00
3:35 AM,31.1,26.1,82,30.14,10.0,Calm,Calm,-,N/A,,Clear,0,2014-03-13 08:35:00
3:55 AM,29.8,25.7,85,30.14,10.0,Calm,Calm,-,N/A,,Clear,0,2014-03-13 08:55:00
4:15 AM,29.8,25.7,85,30.15,10.0,Calm,Calm,-,N/A,,Clear,0,2014-03-13 09:15:00
4:35 AM,29.3,26.1,88,30.16,10.0,Calm,Calm,-,N/A,,Clear,0,2014-03-13 09:35:00
4:55 AM,29.8,26.2,86,30.16,10.0,Calm,Calm,-,N/A,,Clear,0,2014-03-13 09:55:00
5:15 AM,28.6,25.5,88,30.17,10.0,Calm,Calm,-,N/A,,Clear,0,2014-03-13 10:15:00
5:35 AM,28.0,25.7,91,30.18,10.0,Calm,Calm,-,N/A,,Clear,0,2014-03-13 10:35:00
5:55 AM,27.3,25.3,92,30.18,10.0,Calm,Calm,-,N/A,,Clear,0,2014-03-13 10:55:00
6:15 AM,27.5,25.7,93,30.19,10.0,Calm,Calm,-,N/A,,Clear,0,2014-03-13 11:15:00
6:35 AM,27.5,25.9,94,30.19,10.0,Calm,Calm,-,N/A,,Clear,0,2014-03-13 11:35:00
6:55 AM,27.5,26.2,95,30.20,10.0,Calm,Calm,-,N/A,,Clear,0,2014-03-13 11:55:00
7:15 AM,27.3,25.7,94,30.21,10.0,Calm,Calm,-,N/A,,Clear,0,2014-03-13 12:15:00
7:35 AM,28.0,26.1,92,30.21,10.0,Calm,Calm,-,N/A,,Clear,0,2014-03-13 12:35:00
7:55 AM,29.1,27.1,92,30.23,10.0,Calm,Calm,-,N/A,,Clear,0,2014-03-13 12:55:00
8:15 AM,31.3,28.4,89,30.24,10.0,Calm,Calm,-,N/A,,Clear,0,2014-03-13 13:15:00
8:35 AM,34.7,30.0,83,30.25,10.0,Calm,Calm,-,N/A,,Clear,0,2014-03-13 13:35:00
8:55 AM,37.6,30.2,75,30.26,10.0,Calm,Calm,-,N/A,,Clear,0,2014-03-13 13:55:00
9:15 AM,39.0,30.6,72,30.26,10.0,NNE,4.6,-,N/A,,Clear,30,2014-03-13 14:15:00
9:35 AM,39.7,28.0,63,30.27,10.0,NNE,4.6,-,N/A,,Clear,30,2014-03-13 14:35:00
9:55 AM,41.0,27.7,59,30.27,10.0,Calm,Calm,-,N/A,,Clear,0,2014-03-13 14:55:00
10:15 AM,42.8,28.2,56,30.28,10.0,Calm,Calm,-,N/A,,Clear,0,2014-03-13 15:15:00
10:35 AM,43.7,28.2,54,30.28,10.0,ENE,3.5,-,N/A,,Clear,70,2014-03-13 15:35:00
10:55 AM,45.0,27.7,51,30.28,10.0,Calm,Calm,-,N/A,,Clear,0,2014-03-13 15:55:00
11:15 AM,46.2,27.9,49,30.28,10.0,Calm,Calm,-,N/A,,Clear,0,2014-03-13 16:15:00
11:35 AM,48.6,28.8,46,30.27,10.0,North,4.6,-,N/A,,Clear,360,2014-03-13 16:35:00
11:55 AM,49.5,26.8,41,30.27,10.0,NW,5.8,-,N/A,,Clear,320,2014-03-13 16:55:00
12:15 PM,50.4,27.7,42,30.26,10.0,NW,6.9,-,N/A,,Clear,320,2014-03-13 17:15:00
12:35 PM,50.9,27.9,41,30.26,10.0,WNW,5.8,-,N/A,,Clear,300,2014-03-13 17:35:00
12:55 PM,51.6,27.9,40,30.26,10.0,WNW,4.6,-,N/A,,Clear,300,2014-03-13 17:55:00
1:15 PM,52.2,27.5,39,30.25,10.0,WNW,4.6,-,N/A,,Clear,300,2014-03-13 18:15:00
1:35 PM,52.7,27.5,38,30.23,10.0,North,4.6,-,N/A,,Clear,360,2014-03-13 18:35:00
1:55 PM,54.0,28.6,38,30.22,10.0,NNW,5.8,-,N/A,,Clear,330,2014-03-13 18:55:00
2:15 PM,54.9,28.6,37,30.21,10.0,NNE,4.6,-,N/A,,Clear,30,2014-03-13 19:15:00
2:35 PM,55.0,27.5,35,30.21,10.0,Calm,Calm,-,N/A,,Clear,0,2014-03-13 19:35:00
2:55 PM,56.8,28.8,34,30.20,10.0,NW,6.9,-,N/A,,Clear,310,2014-03-13 19:55:00
3:15 PM,56.8,28.0,33,30.19,10.0,NW,6.9,-,N/A,,Clear,310,2014-03-13 20:15:00
3:35 PM,57.2,28.2,33,30.19,10.0,North,5.8,-,N/A,,Clear,360,2014-03-13 20:35:00
3:55 PM,57.9,28.4,32,30.19,10.0,West,8.1,-,N/A,,Clear,260,2014-03-13 20:55:00
4:15 PM,58.1,28.2,32,30.19,10.0,North,5.8,-,N/A,,Clear,350,2014-03-13 21:15:00
4:35 PM,58.1,28.9,33,30.18,10.0,WNW,4.6,-,N/A,,Clear,290,2014-03-13 21:35:00
4:55 PM,58.1,28.2,32,30.18,10.0,West,4.6,-,N/A,,Clear,260,2014-03-13 21:55:00
5:15 PM,57.9,28.0,32,30.18,10.0,Calm,Calm,-,N/A,,Clear,0,2014-03-13 22:15:00
5:35 PM,57.9,27.9,32,30.18,10.0,WSW,3.5,-,N/A,,Clear,240,2014-03-13 22:35:00
5:55 PM,57.6,28.9,34,30.18,10.0,SSW,4.6,-,N/A,,Clear,200,2014-03-13 22:55:00
6:15 PM,57.2,28.8,34,30.18,10.0,SSW,6.9,-,N/A,,Clear,200,2014-03-13 23:15:00
6:35 PM,56.5,28.4,34,30.18,10.0,SSW,4.6,-,N/A,,Clear,210,2014-03-13 23:35:00
6:55 PM,55.4,28.8,36,30.18,10.0,South,3.5,-,N/A,,Clear,170,2014-03-13 23:55:00
7:15 PM,53.6,29.3,39,30.18,10.0,South,3.5,-,N/A,,Clear,180,2014-03-14 00:15:00
7:35 PM,50.2,31.5,49,30.18,10.0,South,3.5,-,N/A,,Clear,170,2014-03-14 00:35:00
7:55 PM,50.4,30.6,47,30.19,10.0,South,3.5,-,N/A,,Clear,170,2014-03-14 00:55:00
8:15 PM,51.3,29.7,44,30.19,10.0,South,4.6,-,N/A,,Clear,170,2014-03-14 01:15:00
8:35 PM,50.2,30.0,46,30.19,10.0,SSE,3.5,-,N/A,,Clear,160,2014-03-14 01:35:00
8:55 PM,50.0,30.0,46,30.19,10.0,SSE,4.6,-,N/A,,Clear,160,2014-03-14 01:55:00
9:15 PM,46.9,31.6,55,30.19,10.0,SSE,4.6,-,N/A,,Clear,160,2014-03-14 02:15:00
9:35 PM,45.1,32.0,60,30.19,10.0,SSE,3.5,-,N/A,,Clear,160,2014-03-14 02:35:00
9:55 PM,44.6,32.0,61,30.19,10.0,SSE,4.6,-,N/A,,Clear,160,2014-03-14 02:55:00
10:15 PM,43.9,31.8,63,30.19,10.0,SSE,4.6,-,N/A,,Clear,160,2014-03-14 03:15:00
10:35 PM,45.3,30.9,57,30.19,10.0,SSE,5.8,-,N/A,,Clear,160,2014-03-14 03:35:00
10:55 PM,45.3,30.2,56,30.19,10.0,South,4.6,-,N/A,,Clear,170,2014-03-14 03:55:00
11:15 PM,45.1,30.4,56,30.19,10.0,South,4.6,-,N/A,,Clear,170,2014-03-14 04:15:00
11:35 PM,45.1,30.4,56,30.18,10.0,SSE,4.6,-,N/A,,Clear,160,2014-03-14 04:35:00
11:55 PM,45.3,30.0,55,30.18,10.0,SSE,4.6,-,N/A,,Clear,160,2014-03-14 04:55:00